Location: Arpaise
(41.0333°N, 14.7333°E)
Time: 08:08:27
(UTC+00:00)

Cosmos 1371 Rocket - Pass Details

Date: 05 July 2020
Orbit: 753 x 790 km, 74.0° (Epoch: 05 August)

Event Time Altitude Azimuth Distance (km) Brightness Sun altitude
Rises 22:36:45 0° 335° (NNW) 3,246 8.4 -25.9°
Reaches altitude 10° 22:39:11 10° 330° (NNW) 2,321 7.3 -26.0°
Maximum altitude 22:44:16 51° 256° (WSW) 976 4.4 -26.1°
Enters shadow 22:44:16 51° 256° (WSW) 976 4.4 -26.1°
